Location: Ottawa
(45.4170°N, 75.7000°W)
Time: 04:09:22
(UTC-04:00)

Envisat - Pass Details

Date: 29 April 2019
Orbit: 764 x 766 km, 98.2° (Epoch: 24 May)

Event Time Altitude Azimuth Distance (km) Brightness Sun altitude
Rises 21:09:19 0° 222° (SW) 3,223 6.3 -10.5°
Reaches altitude 10° 21:13:35 10° 257° (WSW) 2,304 6.1 -11.2°
Maximum altitude 21:15:00 11° 274° (W) 2,230 6.4 -11.4°
Drops below altitude 10° 21:16:26 10° 290° (WNW) 2,309 6.9 -11.6°
Sets 21:20:45 0° 326° (NW) 3,242 7.7 -12.2°
